| time (UTC) | temp F | wind direction | speed MPH | gust MPH | rain 1hr in | rain 24hr in | rain mn in | humidity % | barometer mb |
| 20260505081548 | 65 | 235 | 10.0 | 14.0 | 0.00 | 0.00 | 0.00 | 87 | 1015.6 |
| 20260505070106 | 65 | 208 | 10.0 | 18.0 | 0.00 | 0.00 | 0.00 | 84 | 1015.2 |
| 20260505060052 | 65 | 195 | 13.0 | 20.0 | 0.00 | 0.00 | 0.00 | 82 | 1015.5 |
| 20260505054533 | 65 | 199 | 15.0 | 21.0 | 0.00 | 0.00 | 0.00 | 82 | 1015.5 |
| 20260505053108 | 65 | 204 | 14.0 | 21.0 | 0.00 | 0.00 | 0.00 | 81 | 1015.7 |
| 20260505051537 | 65 | 182 | 14.0 | 20.0 | 0.00 | 0.00 | 0.00 | 82 | 1015.8 |
| 20260505050120 | 66 | 194 | 14.0 | 22.0 | 0.00 | 0.00 | 0.00 | 81 | 1015.8 |
| 20260505041611 | 66 | 198 | 17.0 | 24.0 | 0.00 | 0.00 | 0.00 | 80 | 1016.0 |
| 20260505040052 | 66 | 198 | 16.0 | 23.0 | 0.00 | 0.00 | 0.00 | 79 | 1015.9 |
| 20260505034519 | 66 | 217 | 17.0 | 23.0 | 0.00 | 0.00 | 0.00 | 79 | 1015.9 |
| 20260505031600 | 66 | 210 | 13.0 | 23.0 | 0.00 | 0.00 | 0.00 | 79 | 1015.8 |
| 20260505021542 | 66 | 212 | 15.0 | 23.0 | 0.00 | 0.00 | 0.00 | 79 | 1015.8 |
| 20260505020054 | 66 | 227 | 15.0 | 22.0 | 0.00 | 0.00 | 0.00 | 79 | 1015.7 |
| 20260505011632 | 66 | 186 | 13.0 | 23.0 | 0.00 | 0.00 | 0.00 | 80 | 1015.4 |
| 20260505001656 | 66 | 208 | 12.0 | 20.0 | 0.00 | 0.00 | 0.00 | 77 | 1014.6 |
| 20260504233023 | 66 | 200 | 12.0 | 22.0 | 0.00 | 0.00 | 0.00 | 76 | 1014.4 |
| 20260504221619 | 67 | 204 | 14.0 | 22.0 | 0.00 | 0.00 | 0.00 | 72 | 1014.5 |
| 20260504213159 | 68 | 194 | 15.0 | 22.0 | 0.00 | 0.00 | 0.00 | 65 | 1014.8 |
| 20260504203141 | 68 | 198 | 16.0 | 25.0 | 0.00 | 0.00 | 0.00 | 64 | 1014.8 |
| 20260504193053 | 68 | 198 | 16.0 | 23.0 | 0.00 | 0.00 | 0.00 | 69 | 1015.1 |
| 20260504191652 | 68 | 209 | 15.0 | 23.0 | 0.00 | 0.00 | 0.00 | 70 | 1015.3 |
| 20260504180049 | 67 | 201 | 16.0 | 21.0 | 0.00 | 0.00 | 0.00 | 71 | 1016.0 |
| 20260504140150 | 64 | 229 | 6.0 | 12.0 | 0.00 | 0.00 | 0.00 | 77 | 1017.0 |